AAL23 KATL-KDCA

Flight info

Callsign AAL23
Flight time 1h 9m
Altitude 37000
Route JACCC2 KELLN Q56 KIWII WAVES KSETT ELAPP BULII CAPSS
Aircraft A321/M-SDE3FGHIRWY/LB1

Departure

Time 2026-05-01 12:20
Airport Hartsfield Jackson Atlanta International Airport (KATL)

Arrival

Time 2026-05-01 13:30
Airport Ronald Reagan Washington National Airport (KDCA)
Time Latitude Longitude Altitude Speed Heading
2026-05-01 11:50 33.64191 -84.42886 1036 ft 0 kts 269°
2026-05-01 12:08 33.64191 -84.42881 1036 ft 3 kts 269°
2026-05-01 12:08 33.64192 -84.42849 1036 ft 4 kts 259°
2026-05-01 12:08 33.64201 -84.42821 1036 ft 4 kts 223°
2026-05-01 12:08 33.64221 -84.42809 1036 ft 1 kts 180°
2026-05-01 12:13 33.64214 -84.42809 1036 ft 3 kts 180°
2026-05-01 12:13 33.64174 -84.42809 1036 ft 8 kts 180°
2026-05-01 12:13 33.64102 -84.42809 1036 ft 12 kts 180°
2026-05-01 12:13 33.64013 -84.42809 1036 ft 14 kts 180°
2026-05-01 12:14 33.63911 -84.42808 1036 ft 16 kts 180°
2026-05-01 12:14 33.63797 -84.42808 1036 ft 17 kts 180°
2026-05-01 12:14 33.63692 -84.42812 1035 ft 13 kts 194°
2026-05-01 12:14 33.63665 -84.42907 1035 ft 14 kts 270°
2026-05-01 12:15 33.63665 -84.43031 1035 ft 16 kts 270°
2026-05-01 12:15 33.63664 -84.43170 1035 ft 17 kts 270°
2026-05-01 12:15 33.63664 -84.43322 1035 ft 19 kts 270°
2026-05-01 12:15 33.63665 -84.43487 1035 ft 20 kts 270°
2026-05-01 12:16 33.63665 -84.43661 1036 ft 21 kts 270°
2026-05-01 12:16 33.63665 -84.43845 1036 ft 22 kts 270°
2026-05-01 12:16 33.63665 -84.44038 1036 ft 23 kts 269°
2026-05-01 12:16 33.63665 -84.44225 1036 ft 23 kts 270°
2026-05-01 12:17 33.63664 -84.44420 1036 ft 24 kts 269°
2026-05-01 12:17 33.63664 -84.44614 1036 ft 19 kts 270°
2026-05-01 12:17 33.63656 -84.44735 1035 ft 10 kts 244°
2026-05-01 12:17 33.63606 -84.44778 1035 ft 9 kts 194°
2026-05-01 12:18 33.63571 -84.44782 1035 ft 0 kts 183°
2026-05-01 12:18 33.63564 -84.44782 1035 ft 2 kts 183°
2026-05-01 12:18 33.63540 -84.44784 1035 ft 5 kts 183°
2026-05-01 12:19 33.63501 -84.44784 1035 ft 7 kts 177°
2026-05-01 12:19 33.63472 -84.44748 1035 ft 7 kts 98°
2026-05-01 12:19 33.63472 -84.44729 1035 ft 0 kts 92°
2026-05-01 12:20 33.63470 -84.44611 1035 ft 49 kts 90°
2026-05-01 12:20 33.63472 -84.43874 1037 ft 125 kts 90°
2026-05-01 12:20 33.63477 -84.42578 1056 ft 180 kts 90°
2026-05-01 12:20 33.63473 -84.41035 1646 ft 187 kts 90°
2026-05-01 12:21 33.63463 -84.39461 2420 ft 191 kts 90°
2026-05-01 12:21 33.63453 -84.37793 2757 ft 211 kts 91°
2026-05-01 12:21 33.63442 -84.35918 3027 ft 238 kts 91°
2026-05-01 12:21 33.63428 -84.33855 3604 ft 254 kts 91°
2026-05-01 12:22 33.63411 -84.31690 4334 ft 265 kts 91°
2026-05-01 12:22 33.63392 -84.29443 5071 ft 275 kts 90°
2026-05-01 12:22 33.63371 -84.27116 5835 ft 283 kts 90°
2026-05-01 12:22 33.63358 -84.24807 6618 ft 288 kts 90°
2026-05-01 12:23 33.63363 -84.22389 7393 ft 293 kts 89°
2026-05-01 12:23 33.63375 -84.19921 8170 ft 298 kts 89°
2026-05-01 12:23 33.63388 -84.17412 8936 ft 304 kts 89°
2026-05-01 12:23 33.63399 -84.14849 9715 ft 310 kts 89°
2026-05-01 12:24 33.63417 -84.12234 10342 ft 321 kts 88°
2026-05-01 12:24 33.63682 -84.09487 10597 ft 344 kts 77°
2026-05-01 12:24 33.64368 -84.06646 10836 ft 365 kts 70°
2026-05-01 12:24 33.65205 -84.03720 11396 ft 374 kts 70°
2026-05-01 12:25 33.66064 -84.00709 12080 ft 380 kts 70°
2026-05-01 12:25 33.67789 -83.94616 13439 ft 391 kts 70°
2026-05-01 12:25 33.68667 -83.91492 14080 ft 397 kts 70°
2026-05-01 12:26 33.69553 -83.88330 14606 ft 405 kts 70°
2026-05-01 12:26 33.71384 -83.81799 15701 ft 419 kts 69°
2026-05-01 12:26 33.72320 -83.78458 16266 ft 426 kts 69°
2026-05-01 12:27 33.73272 -83.75052 16826 ft 433 kts 69°
2026-05-01 12:27 33.75206 -83.68099 17942 ft 446 kts 68°
2026-05-01 12:28 33.77964 -83.61429 18922 ft 448 kts 51°
2026-05-01 12:28 33.79677 -83.58263 19459 ft 453 kts 51°
2026-05-01 12:28 33.83131 -83.51862 20558 ft 461 kts 51°
2026-05-01 12:29 33.84885 -83.48603 21054 ft 467 kts 51°
2026-05-01 12:29 33.86651 -83.45307 21536 ft 472 kts 51°
2026-05-01 12:29 33.90234 -83.38575 22470 ft 482 kts 51°
2026-05-01 12:30 33.93882 -83.31707 23379 ft 492 kts 51°
2026-05-01 12:30 33.95734 -83.28224 23774 ft 496 kts 51°
2026-05-01 12:30 33.97606 -83.24706 24157 ft 500 kts 51°
2026-05-01 12:31 33.99485 -83.21169 24559 ft 503 kts 51°
2026-05-01 12:31 34.01374 -83.17606 24944 ft 506 kts 51°
2026-05-01 12:31 34.03276 -83.14016 25363 ft 509 kts 51°
2026-05-01 12:31 34.05186 -83.10409 25799 ft 511 kts 51°
2026-05-01 12:32 34.07105 -83.06782 26211 ft 514 kts 51°
2026-05-01 12:32 34.10967 -82.99462 26970 ft 520 kts 51°
2026-05-01 12:32 34.12911 -82.95772 27338 ft 523 kts 51°
2026-05-01 12:33 34.14866 -82.92050 27710 ft 526 kts 51°
2026-05-01 12:33 34.16856 -82.88250 28074 ft 529 kts 51°
2026-05-01 12:33 34.18799 -82.84523 28414 ft 533 kts 51°
2026-05-01 12:33 34.20800 -82.80674 28753 ft 536 kts 51°
2026-05-01 12:34 34.22786 -82.76851 29086 ft 539 kts 51°
2026-05-01 12:34 34.24783 -82.73005 29434 ft 541 kts 50°
2026-05-01 12:34 34.26788 -82.69149 29820 ft 544 kts 50°
2026-05-01 12:34 34.28807 -82.65264 30131 ft 547 kts 50°
2026-05-01 12:35 34.30835 -82.61354 30415 ft 549 kts 50°
2026-05-01 12:35 34.32859 -82.57441 30815 ft 549 kts 50°
2026-05-01 12:35 34.34879 -82.53528 31204 ft 549 kts 50°
2026-05-01 12:35 34.36902 -82.49610 31584 ft 549 kts 50°
2026-05-01 12:36 34.38925 -82.45691 31973 ft 549 kts 50°
2026-05-01 12:36 34.40949 -82.41770 32351 ft 549 kts 50°
2026-05-01 12:36 34.42290 -82.39171 32611 ft 549 kts 50°
2026-05-01 12:36 34.44310 -82.35250 33004 ft 549 kts 50°
2026-05-01 12:37 34.46285 -82.31285 33391 ft 550 kts 51°
2026-05-01 12:37 34.48184 -82.27246 33774 ft 552 kts 53°
2026-05-01 12:37 34.50018 -82.23159 34149 ft 554 kts 54°
2026-05-01 12:37 34.51833 -82.19025 34453 ft 554 kts 53°
2026-05-01 12:38 34.53840 -82.15091 34778 ft 544 kts 45°
2026-05-01 12:38 34.56044 -82.11372 35117 ft 542 kts 44°
2026-05-01 12:38 34.58267 -82.07694 35471 ft 540 kts 43°
2026-05-01 12:38 34.60540 -82.03992 35840 ft 538 kts 43°
2026-05-01 12:39 34.62781 -82.00359 36195 ft 537 kts 43°
2026-05-01 12:39 34.65019 -81.96732 36534 ft 536 kts 43°
2026-05-01 12:39 34.67245 -81.93102 36878 ft 535 kts 43°
2026-05-01 12:39 34.69462 -81.89462 37014 ft 536 kts 43°
2026-05-01 12:40 34.73863 -81.82174 37026 ft 534 kts 43°
2026-05-01 12:40 34.78247 -81.74880 37037 ft 535 kts 43°
2026-05-01 12:41 34.82644 -81.67578 37047 ft 535 kts 43°
2026-05-01 12:41 34.87032 -81.60277 37032 ft 533 kts 43°
2026-05-01 12:42 34.91409 -81.52986 37034 ft 533 kts 43°
2026-05-01 12:42 34.95790 -81.45687 37086 ft 534 kts 43°
2026-05-01 12:43 35.00165 -81.38374 37060 ft 534 kts 43°
2026-05-01 12:43 35.04543 -81.31052 37063 ft 534 kts 43°
2026-05-01 12:44 35.08914 -81.23712 37069 ft 534 kts 43°
2026-05-01 12:45 35.17630 -81.09008 37136 ft 534 kts 43°
2026-05-01 12:45 35.21983 -81.01655 37070 ft 532 kts 43°
2026-05-01 12:46 35.26356 -80.94269 37064 ft 533 kts 43°
2026-05-01 12:46 35.30701 -80.86912 37077 ft 533 kts 43°
2026-05-01 12:47 35.35041 -80.79538 37112 ft 534 kts 43°
2026-05-01 12:47 35.39382 -80.72160 37109 ft 534 kts 43°
2026-05-01 12:48 35.43713 -80.64786 37088 ft 532 kts 43°
2026-05-01 12:48 35.48031 -80.57403 37061 ft 533 kts 44°
2026-05-01 12:49 35.52347 -80.50006 37067 ft 533 kts 44°
2026-05-01 12:49 35.56671 -80.42590 37075 ft 534 kts 44°
2026-05-01 12:50 35.60987 -80.35177 37079 ft 534 kts 44°
2026-05-01 12:50 35.65300 -80.27752 37092 ft 534 kts 44°
2026-05-01 12:51 35.69600 -80.20305 37096 ft 534 kts 44°
2026-05-01 12:52 35.76044 -80.09130 37085 ft 533 kts 44°
2026-05-01 12:52 35.82488 -79.97955 37101 ft 533 kts 44°
2026-05-01 12:53 35.88895 -79.86744 37060 ft 533 kts 44°
2026-05-01 12:54 35.93170 -79.79274 37051 ft 533 kts 44°
2026-05-01 12:54 35.99724 -79.68128 37083 ft 532 kts 43°
2026-05-01 12:55 36.06254 -79.57044 37104 ft 533 kts 43°
2026-05-01 12:56 36.10580 -79.49603 37072 ft 533 kts 44°
2026-05-01 12:56 36.14908 -79.42144 37053 ft 534 kts 44°
2026-05-01 12:57 36.19247 -79.34684 37075 ft 534 kts 43°
2026-05-01 12:57 36.25759 -79.23485 37109 ft 534 kts 44°
2026-05-01 12:58 36.30083 -79.16000 37081 ft 533 kts 44°
2026-05-01 12:59 36.36547 -79.04766 37087 ft 534 kts 44°
2026-05-01 12:59 36.43042 -78.93498 37108 ft 535 kts 44°
2026-05-01 13:00 36.49520 -78.82188 37105 ft 535 kts 44°
2026-05-01 13:01 36.55947 -78.70848 37103 ft 535 kts 44°
2026-05-01 13:01 36.60671 -78.63865 37096 ft 513 kts 31°
2026-05-01 13:02 36.63256 -78.60797 37104 ft 513 kts 31°
2026-05-01 13:07 37.17015 -77.96022 34981 ft 524 kts 31°
2026-05-01 13:07 37.19651 -77.92813 34049 ft 532 kts 30°
2026-05-01 13:07 37.22335 -77.89553 32963 ft 540 kts 31°
2026-05-01 13:08 37.25043 -77.86256 31957 ft 546 kts 32°
2026-05-01 13:08 37.27787 -77.82909 30865 ft 553 kts 33°
2026-05-01 13:08 37.30529 -77.79538 29901 ft 544 kts 33°
2026-05-01 13:08 37.33195 -77.76222 29299 ft 537 kts 34°
2026-05-01 13:09 37.35856 -77.72925 28530 ft 536 kts 34°
2026-05-01 13:09 37.38504 -77.69659 27805 ft 532 kts 34°
2026-05-01 13:09 37.41145 -77.66413 27093 ft 529 kts 34°
2026-05-01 13:09 37.43770 -77.63191 26367 ft 526 kts 35°
2026-05-01 13:10 37.46374 -77.59993 25721 ft 521 kts 36°
2026-05-01 13:10 37.48945 -77.56830 25060 ft 516 kts 36°
2026-05-01 13:10 37.50669 -77.54702 24768 ft 508 kts 36°
2026-05-01 13:10 37.53146 -77.51628 23756 ft 494 kts 37°
2026-05-01 13:11 37.55553 -77.48676 23109 ft 468 kts 33°
2026-05-01 13:11 37.58069 -77.46255 22557 ft 447 kts 22°
2026-05-01 13:11 37.60770 -77.44476 22058 ft 430 kts 12°
2026-05-01 13:11 37.63543 -77.43291 21587 ft 414 kts
2026-05-01 13:12 37.66317 -77.42449 21127 ft 408 kts
2026-05-01 13:12 37.69062 -77.41606 20681 ft 404 kts
2026-05-01 13:12 37.71775 -77.40763 20217 ft 400 kts
2026-05-01 13:12 37.74460 -77.39921 19760 ft 395 kts
2026-05-01 13:13 37.77111 -77.39095 19297 ft 391 kts
2026-05-01 13:13 37.79748 -77.38278 18793 ft 389 kts
2026-05-01 13:13 37.82367 -77.37468 18287 ft 386 kts
2026-05-01 13:13 37.84960 -77.36668 17733 ft 382 kts
2026-05-01 13:14 37.87536 -77.35872 17249 ft 377 kts
2026-05-01 13:14 37.90048 -77.35087 16896 ft 368 kts
2026-05-01 13:14 37.92511 -77.34318 16559 ft 363 kts
2026-05-01 13:14 37.94990 -77.33554 16031 ft 361 kts
2026-05-01 13:15 37.97391 -77.32821 15529 ft 358 kts
2026-05-01 13:15 37.99838 -77.32076 14986 ft 356 kts
2026-05-01 13:15 38.02243 -77.31339 14467 ft 354 kts
2026-05-01 13:15 38.04629 -77.30602 13957 ft 352 kts
2026-05-01 13:16 38.06993 -77.29871 13459 ft 348 kts
2026-05-01 13:16 38.09335 -77.29149 12922 ft 345 kts
2026-05-01 13:16 38.11655 -77.28428 12401 ft 342 kts
2026-05-01 13:17 38.18391 -77.26295 11345 ft 306 kts
2026-05-01 13:17 38.20374 -77.25656 11012 ft 286 kts
2026-05-01 13:18 38.24137 -77.24459 10277 ft 279 kts
2026-05-01 13:18 38.26017 -77.23870 10158 ft 278 kts
2026-05-01 13:18 38.27899 -77.23283 10041 ft 277 kts
2026-05-01 13:18 38.29736 -77.22705 9881 ft 267 kts
2026-05-01 13:19 38.31517 -77.22140 9413 ft 260 kts
2026-05-01 13:19 38.33241 -77.21423 9072 ft 263 kts 21°
2026-05-01 13:19 38.36178 -77.18647 8387 ft 263 kts 38°
2026-05-01 13:20 38.37539 -77.17103 8042 ft 261 kts 38°
2026-05-01 13:20 38.38891 -77.15577 7710 ft 261 kts 38°
2026-05-01 13:20 38.40250 -77.14048 7391 ft 259 kts 38°
2026-05-01 13:21 38.42918 -77.11049 6888 ft 252 kts 38°
2026-05-01 13:21 38.44216 -77.09587 6646 ft 247 kts 38°
2026-05-01 13:21 38.45498 -77.08143 6358 ft 245 kts 38°
2026-05-01 13:21 38.46767 -77.06714 6110 ft 240 kts 38°
2026-05-01 13:22 38.47991 -77.05331 5978 ft 230 kts 38°
2026-05-01 13:22 38.49153 -77.04015 5783 ft 220 kts 38°
2026-05-01 13:22 38.50298 -77.02746 5427 ft 217 kts 34°
2026-05-01 13:22 38.51581 -77.01783 5063 ft 212 kts 21°
2026-05-01 13:23 38.52997 -77.01232 4704 ft 209 kts
2026-05-01 13:23 38.54428 -77.01011 4380 ft 204 kts
2026-05-01 13:23 38.55804 -77.00915 4246 ft 192 kts 359°
2026-05-01 13:23 38.57116 -77.00981 4011 ft 187 kts 356°
2026-05-01 13:24 38.58430 -77.01097 3642 ft 189 kts 356°
2026-05-01 13:24 38.59728 -77.01223 3443 ft 184 kts 356°
2026-05-01 13:24 38.60998 -77.01349 3266 ft 182 kts 356°
2026-05-01 13:25 38.63524 -77.01602 2845 ft 182 kts 356°
2026-05-01 13:25 38.64788 -77.01729 2628 ft 181 kts 356°
2026-05-01 13:25 38.66033 -77.01853 2469 ft 179 kts 356°
2026-05-01 13:25 38.67273 -77.01978 2311 ft 178 kts 356°
2026-05-01 13:26 38.68511 -77.02102 2182 ft 179 kts 356°
2026-05-01 13:26 38.69750 -77.02226 2051 ft 179 kts 355°
2026-05-01 13:26 38.70989 -77.02350 1922 ft 179 kts 356°
2026-05-01 13:26 38.72229 -77.02475 1792 ft 179 kts 355°
2026-05-01 13:27 38.73447 -77.02597 1715 ft 170 kts 356°
2026-05-01 13:27 38.74601 -77.02713 1626 ft 163 kts 355°
2026-05-01 13:27 38.76829 -77.02937 1468 ft 160 kts 355°
2026-05-01 13:28 38.79023 -77.03158 1070 ft 152 kts 355°
2026-05-01 13:28 38.80031 -77.03259 885 ft 141 kts 355°
2026-05-01 13:29 38.81941 -77.03426 513 ft 135 kts 355°
2026-05-01 13:29 38.83792 -77.03629 128 ft 132 kts 354°
2026-05-01 13:30 38.85512 -77.03871 26 ft 0 kts 296°
2026-05-01 13:31 38.85564 -77.03966 28 ft 5 kts 277°
2026-05-01 13:32 38.85550 -77.04047 24 ft 6 kts 255°
2026-05-01 13:33 38.85503 -77.04231 24 ft 0 kts 252°
2026-05-01 13:33 38.85492 -77.04248 24 ft 2 kts 198°
2026-05-01 13:34 38.85453 -77.04241 26 ft 1 kts 164°
2026-05-01 13:34 38.85443 -77.04237 25 ft 0 kts 163°